User: anonymous   Login
Location: Peebles
(55.6412°N, 3.1714°W)
Time: 03:49:03
(UTC+00:00)
Language:

ATLAS 5 CENTAUR R/B - Orbit

View from above orbital plane
View from above orbital plane
View from above satellite
View from above satellite

Ground track
Ground track

The orbit data is extracted from the following two-line orbital elements,

1 32379U 07060B   21333.06221265  .00005917  00000-0  78102-3 0  9996
2 32379  60.7773 218.0283 5076492 146.3596 259.9262  5.51270685 47158
Epoch (UTC): 29 November 2021 01:29:35
Eccentricity: 0.5076492
inclination: 60.7773°
perigee height: 286 km
apogee height: 14029 km
right ascension of ascending node: 218.0283°
argument of perigee: 146.3596°
revolutions per day: 5.51270685
mean anomaly at epoch: 259.9262°
orbit number at epoch: 4715

The dashed part of the orbit path shows where the satellite is in the earth's shadow,  

DLR